User: anonymous   Login
Location: Ostrava
(49.8330°N, 18.2830°E)
Time: 06:36:51
(UTC+02:00)
Language:

Cosmos 1766 - Orbit

View from above orbital plane
View from above orbital plane
View from above satellite
View from above satellite

Ground track
Ground track

The orbit data is extracted from the following two-line orbital elements,

1 16881U 86055A   17235.29290462 +.00000487 +00000-0 +27882-4 0  9990
2 16881 082.5120 318.0395 0016238 226.3002 133.6883 15.10195010670400
Epoch (UTC): 23 August 2017 07:01:46
Eccentricity: 0.0016238
inclination: 82.5120°
perigee height: 524 km
apogee height: 547 km
right ascension of ascending node: 318.0395°
argument of perigee: 226.3002°
revolutions per day: 15.10195010
mean anomaly at epoch: 133.6883°
orbit number at epoch: 67040

The dashed part of the orbit path shows where the satellite is in the earth's shadow,  

DLR